Regional Weather Roundup
Issued by NWS Spokane, WA

Current Version | Previous Version | Text Only | Print | Product List | Glossary On
Versions: 1 2 3 4 5 6 7 8 9 10 11 12 13 14 15 16 17 18 19 20 21 22 23 24 25 26 27 28 29 30 31 32 33 34 35 36 37 38 39 40 41 42 43 44 45 46 47 48 49 50
939
NZUS01 KOTX 291910
RWROTX

Eastern Washington/Northern Idaho Roundup
National Weather Service, Spokane WA
1200 PM PDT WED MAR 29 2017

Note: "fair" indicated few or no clouds below 12,000 feet with no
significant weather and/or obstructions to visibility.

...Northeast Washington and Northern Idaho Panhandle...

CITY           SKY/WX    TMP DP  RH WIND       PRES   REMARKS
Spokane Intl   LGT RAIN  45  43  93 S8        29.90F FOG
Spokane Downto LGT RAIN  45  44  97 VRB3      29.92F FOG
Coeur d Alene  LGT RAIN  43  41  93 S8        29.93F
Deer Park      CLOUDY    40  38  93 NE7       29.92F FOG
Sandpoint      DRIZZLE   39  37  93 CALM      29.95F
Bonners Ferry  MOCLDY    39  37  93 CALM      29.94F FOG

...Southeast Washington and southern Idaho Panhandle...

CITY           SKY/WX    TMP DP  RH WIND       PRES   REMARKS
Walla Walla    RAIN      54  51  90 W9        29.94R FOG
Pullman/Moscow LGT RAIN  46  42  86 SE12      29.95F FOG
Lewiston       LGT RAIN  49  44  83 E12       29.94F
Lowell           N/A     46  44  93 CALM      30.03F
Grangeville    CLOUDY    48  37  66 S21G32    29.94F

...Columbia Basin...

CITY           SKY/WX    TMP DP  RH WIND       PRES   REMARKS
Ephrata        CLOUDY    50  42  74 S10       29.87F
Moses Lake     CLOUDY    51  45  79 S10       29.88F
Pasco            N/A    N/A N/A N/A MISG      29.93F
Richland       CLOUDY    53  49  87 SE12      29.91F
Hermiston      CLOUDY    51  48  89 SW8       29.95R
Pendleton      LGT RAIN  50  48  93 W15       29.94R

...East Slopes Cascades...

CITY           SKY/WX    TMP DP  RH WIND       PRES   REMARKS
The Dalles     CLOUDY    51  47  86 CALM      29.96F
Yakima         CLOUDY    55  47  74 S8        29.87F
Ellensburg     CLOUDY    47  40  76 W6        29.86F
Wenatchee      CLOUDY    42  41  96 CALM      29.86F
Omak           LGT RAIN  46  41  82 S8        29.86F
Sunnyside      MOCLDY    55  46  72 E3        29.89F

...Southern British Columbia...

CITY           SKY/WX    TMP DP  RH WIND       PRES   REMARKS
Penticton      PTSUNNY   50  41  71 S23G31    29.78F
Castlegar      LGT RAIN  41  39  93 S5        29.91F
Cranbrook      LGT RAIN  39  37  93 SE9       29.89F
Osoyoos          N/A     46  41  81 S7          N/A
Creston          N/A     41  39  93 S3          N/A

...Western Montana...

CITY           SKY/WX    TMP DP  RH WIND       PRES   REMARKS
Kalispell      LGT RAIN  41  38  89 SE10      29.95F
Missoula       CLOUDY    46  39  76 E13       29.99F

...Neighboring Cities...

CITY           SKY/WX    TMP DP  RH WIND       PRES   REMARKS
Seattle        CLOUDY    55  49  80 S22G28    29.82S
Portland       CLOUDY    53  48  83 S18       30.01S
Boise          CLOUDY    57  34  41 SE15      30.13F
Great Falls    CLOUDY    48  33  56 SW24G30   29.94F
Calgary        CLOUDY    50  18  27 S12       29.80F



USA.gov is the U.S. government's official web portal to all federal, state and local government web resources and services.